Date String (YYYY-MM-DD hh:mm:ss) UTC,Instrument flags,Ambient pressure (hPa),Sample flow (lpm),Bypass flow (lpm),Sample temperature (°C),Ambient temperature (°C),ASC tube jacket temperature (°C),LED temperature (°C),Box temperature (°C),Sample RH (%),Span deviation,Mass concentration (μg/m³),Mass concentration (μg/m³),Mass concentration (μg/m³)
DateTimeUTC,F1_M11,P_M11,Q1_M11,Q2_M11,T1_M11,T2_M11,T3_M11,T4_M11,T5_M11,U1_M11,ZSPAN_M11,X0_M11,X2_M11,X1_M11
2022-11-25 15:00:00,,0833.9,5.00,0.00,22.2,21.0,00.0,31.1,24.0,13.7,0000.0,0000.55,0000.36,0000.27
2022-11-25 15:01:00,,0834.0,5.00,0.00,22.2,21.0,00.0,31.1,24.0,13.5,0000.0,0000.54,0000.35,0000.27
2022-11-25 15:02:00,,0834.0,5.00,0.00,22.2,21.0,00.0,31.1,23.9,13.6,0000.0,0000.54,0000.36,0000.27
2022-11-25 15:03:00,,0834.0,5.00,0.00,22.2,21.0,00.0,31.1,23.9,13.5,0000.0,0000.60,0000.38,0000.28
2022-11-25 15:04:00,,0834.0,5.00,0.00,22.2,21.0,00.0,31.1,23.9,13.5,0000.0,0000.56,0000.37,0000.29
2022-11-25 15:05:00,,0834.0,5.00,0.00,22.2,21.0,00.0,31.1,23.9,13.6,0000.0,0000.50,0000.35,0000.29
2022-11-25 15:06:00,,0834.0,5.00,0.00,22.2,21.0,00.0,31.1,23.9,13.5,0000.0,0000.51,0000.36,0000.30
2022-11-25 15:07:00,,0834.0,5.00,0.00,22.2,21.0,00.0,31.1,24.0,13.5,0000.0,0000.48,0000.36,0000.31
2022-11-25 15:08:00,,0834.0,4.99,0.00,22.2,21.0,00.0,31.1,24.0,13.7,0000.0,0000.48,0000.36,0000.31
2022-11-25 15:09:00,,0834.0,5.00,0.00,22.3,21.0,00.0,31.1,24.0,13.7,0000.0,0000.91,0000.37,0000.31
2022-11-25 15:10:00,,0834.0,5.00,0.00,22.3,21.1,00.0,31.1,24.1,13.9,0000.0,0001.09,0000.38,0000.32
2022-11-25 15:11:00,,0834.0,5.00,0.00,22.3,21.1,00.0,31.1,24.1,14.5,0000.0,0001.10,0000.39,0000.32
2022-11-25 15:12:00,,0834.0,5.00,0.00,22.3,21.1,00.0,31.1,24.1,14.6,0000.0,0001.13,0000.41,0000.33
2022-11-25 15:13:00,,0834.0,5.00,0.00,22.3,21.2,00.0,31.2,24.1,14.5,0000.0,0001.10,0000.40,0000.33
2022-11-25 15:14:00,,0834.0,5.01,0.00,22.3,21.2,00.0,31.2,24.1,14.6,0000.0,0001.04,0000.37,0000.33
2022-11-25 15:15:00,,0834.0,5.01,0.00,22.3,21.2,00.0,31.2,24.2,14.6,0000.0,0001.04,0000.37,0000.33
2022-11-25 15:16:00,,0834.0,4.99,0.00,22.3,21.2,00.0,31.2,24.2,14.6,0000.0,0001.05,0000.37,0000.33
2022-11-25 15:17:00,,0834.1,4.99,0.00,22.4,21.2,00.0,31.2,24.2,13.8,0000.0,0001.06,0000.38,0000.34
2022-11-25 15:18:00,,0834.1,5.00,0.00,22.4,21.3,00.0,31.2,24.2,13.4,0000.0,0001.07,0000.40,0000.36
2022-11-25 15:19:00,,0834.0,5.00,0.00,22.4,21.3,00.0,31.2,24.2,13.3,0000.0,0001.10,0000.42,0000.38
2022-11-25 15:20:00,,0834.1,5.00,0.00,22.4,21.3,00.0,31.2,24.2,12.4,0000.0,0000.74,0000.44,0000.41
2022-11-25 15:21:00,,0834.0,5.01,0.00,22.4,21.3,00.0,31.2,24.2,11.9,0000.0,0000.56,0000.47,0000.45
2022-11-25 15:22:00,,0834.0,5.00,0.00,22.4,21.3,00.0,31.2,24.2,11.7,0000.0,0000.58,0000.49,0000.48
2022-11-25 15:23:00,,0834.0,4.99,0.00,22.4,21.3,00.0,31.3,24.3,11.4,0000.0,0000.58,0000.50,0000.49
2022-11-25 15:24:00,,0834.0,5.01,0.00,22.5,21.4,00.0,31.3,24.3,11.2,0000.0,0000.61,0000.54,0000.53
2022-11-25 15:25:00,,0834.0,5.01,0.00,22.5,21.4,00.0,31.3,24.3,10.9,0000.0,0000.64,0000.56,0000.54
2022-11-25 15:26:00,,0834.1,5.01,0.00,22.5,21.4,00.0,31.3,24.3,11.8,0000.0,0000.64,0000.57,0000.55
2022-11-25 15:27:00,,0834.1,4.99,0.00,22.5,21.4,00.0,31.3,24.4,11.7,0000.0,0000.69,0000.60,0000.57
2022-11-25 15:28:00,,0834.1,4.99,0.00,22.5,21.4,00.0,31.3,24.4,11.6,0000.0,0000.72,0000.63,0000.58
2022-11-25 15:29:00,,0834.1,5.01,0.00,22.6,21.5,00.0,31.3,24.4,11.2,0000.0,0000.73,0000.62,0000.57
2022-11-25 15:30:00,,0834.0,5.01,0.00,22.6,21.5,00.0,31.4,24.4,11.0,0000.0,0000.71,0000.60,0000.54
2022-11-25 15:31:00,,0834.1,5.01,0.00,22.6,21.5,00.0,31.4,24.4,11.0,0000.0,0000.71,0000.59,0000.52
2022-11-25 15:32:00,,0834.1,4.99,0.00,22.6,21.5,00.0,31.4,24.4,11.1,0000.0,0000.65,0000.54,0000.47
2022-11-25 15:33:00,,0834.1,4.99,0.00,22.6,21.5,00.0,31.4,24.4,11.4,0000.0,0000.63,0000.51,0000.44
2022-11-25 15:34:00,,0834.1,4.99,0.00,22.6,21.5,00.0,31.4,24.5,11.4,0000.0,0000.60,0000.48,0000.41
2022-11-25 15:35:00,,0834.1,5.01,0.00,22.6,21.5,00.0,31.4,24.5,11.1,0000.0,0000.61,0000.45,0000.37
2022-11-25 15:36:00,,0834.1,5.01,0.00,22.6,21.6,00.0,31.4,24.5,10.9,0000.0,0000.61,0000.43,0000.35
2022-11-25 15:37:00,,0834.1,5.00,0.00,22.6,21.6,00.0,31.5,24.5,10.8,0000.0,0000.59,0000.41,0000.34
2022-11-25 15:38:00,,0834.1,5.00,0.00,22.7,21.6,00.0,31.5,24.5,11.1,0000.0,0000.55,0000.37,0000.32
2022-11-25 15:39:00,,0834.1,4.99,0.00,22.7,21.6,00.0,31.5,24.5,11.3,0000.0,0000.51,0000.35,0000.30
2022-11-25 15:40:00,,0834.1,5.00,0.00,22.7,21.6,00.0,31.5,24.6,10.9,0000.0,0000.60,0000.35,0000.29
2022-11-25 15:41:00,,0834.1,5.00,0.00,22.7,21.7,00.0,31.5,24.6,10.9,0000.0,0000.69,0000.36,0000.29
2022-11-25 15:42:00,,0834.0,5.01,0.00,22.7,21.7,00.0,31.5,24.6,11.1,0000.0,0000.79,0000.38,0000.29
2022-11-25 15:43:00,,0834.0,5.00,0.00,22.7,21.7,00.0,31.5,24.6,11.1,0000.0,0001.25,0000.40,0000.30
2022-11-25 15:44:00,,0834.0,5.01,0.00,22.8,21.7,00.0,31.5,24.7,11.0,0000.0,0001.62,0000.42,0000.28
2022-11-25 15:45:00,,0834.0,5.00,0.00,22.8,21.7,00.0,31.6,24.7,11.0,0000.0,0001.63,0000.42,0000.28
2022-11-25 15:46:00,,0834.0,4.99,0.00,22.8,21.8,00.0,31.6,24.7,11.0,0000.0,0001.95,0000.45,0000.28
2022-11-25 15:47:00,,0834.1,5.00,0.00,22.8,21.8,00.0,31.6,24.7,11.1,0000.0,0003.45,0000.48,0000.29
2022-11-25 15:48:00,,0834.1,5.00,0.00,22.8,21.8,00.0,31.6,24.7,11.2,0000.0,0003.60,0000.53,0000.29
2022-11-25 15:49:00,,0834.1,4.99,0.00,22.8,21.8,00.0,31.6,24.7,11.2,0000.0,0003.81,0000.58,0000.29
2022-11-25 15:50:00,,0834.0,5.00,0.00,22.9,21.8,00.0,31.6,24.7,11.5,0000.0,0005.11,0000.61,0000.28
2022-11-25 15:51:00,,0834.0,5.00,0.00,22.9,21.9,00.0,31.7,24.8,11.5,0000.0,0005.46,0000.60,0000.28
2022-11-25 15:52:00,,0834.0,5.00,0.00,22.9,21.9,00.0,31.7,24.8,11.5,0000.0,0005.45,0000.59,0000.28
2022-11-25 15:53:00,,0834.0,5.01,0.00,22.9,21.9,00.0,31.7,24.8,11.3,0000.0,0005.38,0000.60,0000.28
2022-11-25 15:54:00,,0834.0,4.99,0.00,22.9,21.9,00.0,31.7,24.8,11.3,0000.0,0005.00,0000.61,0000.27
2022-11-25 15:55:00,,0834.0,4.99,0.00,22.9,21.9,00.0,31.7,24.8,11.2,0000.0,0004.70,0000.62,0000.28
2022-11-25 15:56:00,,0834.0,5.01,0.00,22.9,21.9,00.0,31.7,24.8,11.2,0000.0,0004.72,0000.63,0000.28
2022-11-25 15:57:00,,0834.0,5.00,0.00,23.0,21.9,00.0,31.8,24.8,11.1,0000.0,0004.48,0000.61,0000.28
2022-11-25 15:58:00,,0834.0,5.02,0.00,23.0,22.0,00.0,31.8,24.8,11.2,0000.0,0002.95,0000.58,0000.28
2022-11-25 15:59:00,,0834.0,5.00,0.00,23.0,22.0,00.0,31.8,24.8,11.3,0000.0,0002.81,0000.53,0000.29
